(161344) = 2003 SU64

Discovered at Campo Imperatore on 2003-09-18 by CINEOS.

Orbit

Orbit type: Main Belt

Note: WebGL enabled browser required.

epoch2023-09-13.0
epoch JD2460200.5
perihelion date2020-05-30.11946
perihelion JD2458999.61946
argument of perihelion (°)265.41576
ascending node (°)86.44778
inclination (°)5.55578
eccentricity0.1743240
perihelion distance (AU)2.1485690
Tisserand w.r.t. Jupiter3.4
ΔV w.r.t. Earth (km/sec)9.4
semimajor axis (AU)2.6021939
mean anomaly (°)281.96433
mean daily motion (°/day)0.23479800
aphelion distance (AU)3.056
period (years)4.2
P-vector [x]0.98526026
P-vector [y]-0.09119858
P-vector [z]-0.14472401
Q-vector [x]0.14115636
Q-vector [y]0.91134581
Q-vector [z]0.38668294
absolute magnitude16.5
phase slope0.15
uncertainty0
referenceMPEC 2023-P20
observations used455
oppositions16
arc length (days)8656
first opposition used1999
last opposition used2023
residual rms (arc-secs)0.77
perturbers coarse indicatorM-v
perturbers precise indicator003Ek
first observation date used1999-10-10.0
last observation date used2023-06-22.0
computer nameMPCLINUX
JD of orbit computation2456760.778907
perihelion JD uncertainty (days)1.8125E-04
argument of perihelion uncertainty (°)9.1516E-05
ascending node uncertainty (°)8.6487E-05
inclination uncertainty (°)5.8465E-06
eccentricity uncertainty 1.3684E-07
perihelion distance uncertainty (AU)3.8741E-07
Minimum Orbit Intersection Distances (in AU)
for orbit epoch: 2460200.5, reference: E2023-P20
Mercury1.76713
Venus1.42227
Earth1.15099
Mars0.77013
Jupiter2.37994
Saturn6.25847
Uranus15.4051
Neptune27.4257

Observations

466 total observations over interval: 1999 10 10.27129 – 2023 06 22.318411
These data are available for download (format description).

Date (UT) J2000 RA J2000 Dec Magn Location Ref
1999 10 10.27129 03 09 24.06 +09 56 17.8 19.5   704 – Lincoln Laboratory ETS, New Mexico MPS 87014
1999 10 10.28705 03 09 23.61 +09 56 16.2 19.6   704 – Lincoln Laboratory ETS, New Mexico MPS 87014
1999 10 10.31855 03 09 22.46 +09 56 11.5 19.5   704 – Lincoln Laboratory ETS, New Mexico MPS 87014
1999 10 10.33428 03 09 21.82 +09 56 09.7 19.5   704 – Lincoln Laboratory ETS, New Mexico MPS 87014
1999 10 19.26061 03 03 16.27 +09 34 41.2 19.3   704 – Lincoln Laboratory ETS, New Mexico MPS 87014
1999 10 19.28860 03 03 14.72 +09 34 38.6 19.7   704 – Lincoln Laboratory ETS, New Mexico MPS 87014
1999 10 19.30259 03 03 14.20 +09 34 36.1 19.1   704 – Lincoln Laboratory ETS, New Mexico MPS 87014
1999 10 19.31664 03 03 13.43 +09 34 34.4 19.2   704 – Lincoln Laboratory ETS, New Mexico MPS 87014
2003 09 02.30895 01 04 38.51 -03 32 39.6 19.2   704 – Lincoln Laboratory ETS, New Mexico MPS 86294
2003 09 02.32059 01 04 38.24 -03 32 43.8 19.6   704 – Lincoln Laboratory ETS, New Mexico MPS 86294
2003 09 02.33218 01 04 38.09 -03 32 47.0 19.6   704 – Lincoln Laboratory ETS, New Mexico MPS 86294
2003 09 02.34377 01 04 37.76 -03 32 48.5 19.6   704 – Lincoln Laboratory ETS, New Mexico MPS 86294
2003 09 02.35535 01 04 37.61 -03 32 53.5 19.5   704 – Lincoln Laboratory ETS, New Mexico MPS 86294
2003 09 18.06024 00 56 51.03 -04 54 07.8 18.1 R 599 – Campo Imperatore-CINEOS MPS 85403
2003 09 18.07071 00 56 50.55 -04 54 10.3 18.8 R 599 – Campo Imperatore-CINEOS MPS 85403
2003 09 18.08203 00 56 50.00 -04 54 14.2 18.7 R 599 – Campo Imperatore-CINEOS MPS 85403
2003 09 18.46940 00 56 33.93 -04 56 19.0 18.4   644 – Palomar Mountain/NEAT MPS 86294
2003 09 18.49113 00 56 32.95 -04 56 26.0 18.6   644 – Palomar Mountain/NEAT MPS 86294
2003 09 18.51236 00 56 32.03 -04 56 33.0 18.4   644 – Palomar Mountain/NEAT MPS 86294
2003 09 19.31146 00 55 58.82 -05 00 52.4 18.5   644 – Palomar Mountain/NEAT MPS 85403
2003 09 19.37949 00 55 55.76 -05 01 14.3 18.5   644 – Palomar Mountain/NEAT MPS 85403
2003 09 19.44623 00 55 52.75 -05 01 35.7 18.5   644 – Palomar Mountain/NEAT MPS 85403
2003 09 22.31811 00 53 45.88 -05 16 57.7 19.2 R 699 – Lowell Observatory-LONEOS MPS 85403
2003 09 22.33474 00 53 45.13 -05 17 02.4   699 – Lowell Observatory-LONEOS MPS 85403
2003 09 22.35141 00 53 44.23 -05 17 09.0   699 – Lowell Observatory-LONEOS MPS 85403
2003 09 22.36797 00 53 43.42 -05 17 13.3   699 – Lowell Observatory-LONEOS MPS 85403
2003 09 25.49889 00 51 15.94 -05 33 27.0 19.8   608 – Haleakala-AMOS MPS 85403
2003 09 25.50941 00 51 15.43 -05 33 30.4 20.0   608 – Haleakala-AMOS MPS 85403
2003 09 25.52041 00 51 14.87 -05 33 33.8 20.1   608 – Haleakala-AMOS MPS 85403
2003 09 30.27882 00 47 19.13 -05 56 35.1 19.1 V 691 – Steward Observatory, Kitt Peak-Spacewatch MPS 87014
2003 09 30.30558 00 47 17.70 -05 56 42.5 19.0 V 691 – Steward Observatory, Kitt Peak-Spacewatch MPS 87014
2003 09 30.33157 00 47 16.32 -05 56 49.5 19.1 V 691 – Steward Observatory, Kitt Peak-Spacewatch MPS 87014
2003 10 06.25991 00 42 14.67 -06 21 20.5 18.8 R 699 – Lowell Observatory-LONEOS MPS 87014
2003 10 06.27987 00 42 13.59 -06 21 25.9   699 – Lowell Observatory-LONEOS MPS 87014
2003 10 06.29968 00 42 12.57 -06 21 31.2   699 – Lowell Observatory-LONEOS MPS 87014
2003 10 06.31954 00 42 11.48 -06 21 34.9   699 – Lowell Observatory-LONEOS MPS 87014
2003 10 16.26939 00 34 10.33 -06 48 34.1 18.7 R 699 – Lowell Observatory-LONEOS MPS 88137
2003 10 16.28612 00 34 09.41 -06 48 36.1   699 – Lowell Observatory-LONEOS MPS 88137
2003 10 16.30262 00 34 08.80 -06 48 37.4   699 – Lowell Observatory-LONEOS MPS 88137
2003 10 16.31918 00 34 07.98 -06 48 38.1   699 – Lowell Observatory-LONEOS MPS 88137
2003 10 18.18695 00 32 46.32 -06 51 24.3 18.6 R 699 – Lowell Observatory-LONEOS MPS 88137
2003 10 18.20027 00 32 45.79 -06 51 24.6   699 – Lowell Observatory-LONEOS MPS 88137
2003 10 18.21370 00 32 45.14 -06 51 25.7   699 – Lowell Observatory-LONEOS MPS 88137
2003 10 18.22704 00 32 44.59 -06 51 26.5   699 – Lowell Observatory-LONEOS MPS 88137
2003 10 27.19078 00 27 10.57 -06 53 27.9 18.7   704 – Lincoln Laboratory ETS, New Mexico MPS 89445
2003 10 27.20255 00 27 10.18 -06 53 28.0 19.6   704 – Lincoln Laboratory ETS, New Mexico MPS 89445
2003 10 27.22655 00 27 09.23 -06 53 27.0 19.5   704 – Lincoln Laboratory ETS, New Mexico MPS 89445
2003 10 27.23886 00 27 08.87 -06 53 27.0 19.3   704 – Lincoln Laboratory ETS, New Mexico MPS 89445
2005 01 15.44318 09 19 41.75 +21 24 57.5 20.8 V 691 – Steward Observatory, Kitt Peak-Spacewatch MPS 178413
2005 01 15.46934 09 19 40.43 +21 25 06.6 20.5 V 691 – Steward Observatory, Kitt Peak-Spacewatch MPS 178413
2005 01 15.53230 09 19 37.25 +21 25 27.1 20.6 V 691 – Steward Observatory, Kitt Peak-Spacewatch MPS 178413
2005 03 11.11200 08 35 31.69 +24 48 53.7 21.0 V 691 – Steward Observatory, Kitt Peak-Spacewatch MPS 178413
2005 03 11.12819 08 35 31.28 +24 48 55.3 20.7 V 691 – Steward Observatory, Kitt Peak-Spacewatch MPS 178413
2005 03 11.14441 08 35 30.94 +24 48 54.5 21.0 V 691 – Steward Observatory, Kitt Peak-Spacewatch MPS 178413
2006 05 30.19433 13 26 07.22 -02 42 24.1 21.2 V G96 – Mt. Lemmon Survey MPS 172822
2006 05 30.20027 13 26 07.08 -02 42 24.2 21.1 V G96 – Mt. Lemmon Survey MPS 172822
2006 05 30.20631 13 26 06.93 -02 42 24.6 20.8 V G96 – Mt. Lemmon Survey MPS 172822
2006 05 30.21222 13 26 06.82 -02 42 25.2 20.6 V G96 – Mt. Lemmon Survey MPS 172822
2007 07 22.70587 22 40 46.41 -16 29 48.6 19.1 R D35 – Lulin Observatory MPS 212256
2007 07 22.71532 22 40 46.36 -16 29 51.7 19.5 R D35 – Lulin Observatory MPS 212256
2007 07 22.72475 22 40 46.22 -16 29 54.9 19.3 R D35 – Lulin Observatory MPS 212256
2007 08 13.59412 22 31 04.08 -18 54 15.1 18.6 R D29 – Purple Mountain Observatory, XuYi Station MPS 213103
2007 08 13.63709 22 31 02.16 -18 54 34.2 19.2 R D29 – Purple Mountain Observatory, XuYi Station MPS 213103
2007 08 13.68837 22 30 59.82 -18 54 56.2 19.4 R D29 – Purple Mountain Observatory, XuYi Station MPS 213103
2007 08 14.57575 22 30 22.03 -19 01 05.4 18.6 V E12 – Siding Spring Survey MPS 213697
2007 08 14.58707 22 30 21.49 -19 01 10.8 18.9 V E12 – Siding Spring Survey MPS 213697
2007 08 14.59821 22 30 20.98 -19 01 15.0 19.4 V E12 – Siding Spring Survey MPS 213697
2007 08 14.60942 22 30 20.44 -19 01 20.3 19.0 V E12 – Siding Spring Survey MPS 213697
2007 09 20.57711 22 03 18.93 -21 47 15.0 18.5 V E12 – Siding Spring Survey MPS 217699
2007 09 20.58735 22 03 18.57 -21 47 14.3 19.1 V E12 – Siding Spring Survey MPS 217699
2007 09 20.59760 22 03 18.21 -21 47 14.7 19.6 V E12 – Siding Spring Survey MPS 217699
2007 09 20.60784 22 03 17.96 -21 47 14.4 19.0 V E12 – Siding Spring Survey MPS 217699
2008 12 22.34629 08 10 40.56 +23 23 42.2 20.4 V 691 – Steward Observatory, Kitt Peak-Spacewatch MPS 269905
2008 12 22.36443 08 10 39.71 +23 23 47.6 20.4 V 691 – Steward Observatory, Kitt Peak-Spacewatch MPS 269905
2008 12 22.38257 08 10 38.87 +23 23 52.7 20.3 V 691 – Steward Observatory, Kitt Peak-Spacewatch MPS 269905
2008 12 29.27273 08 05 02.18 +23 56 16.4 20.2 V G96 – Mt. Lemmon Survey MPS 271564
2008 12 29.28234 08 05 01.68 +23 56 19.1 20.2 V G96 – Mt. Lemmon Survey MPS 271564
2008 12 29.28965 08 05 01.28 +23 56 21.0 20.5 V G96 – Mt. Lemmon Survey MPS 271564
2008 12 29.29698 08 05 00.85 +23 56 23.3 20.4 V G96 – Mt. Lemmon Survey MPS 271564
2010 04 12.36116 12 50 37.78 +03 06 31.4 20.9 V G96 – Mt. Lemmon Survey MPS 323227
2010 04 12.37171 12 50 37.21 +03 06 34.0 20.6 V G96 – Mt. Lemmon Survey MPS 323227
2010 04 12.38224 12 50 36.67 +03 06 36.9 20.9 V G96 – Mt. Lemmon Survey MPS 323227
2010 04 12.39274 12 50 36.13 +03 06 39.8 20.5 V G96 – Mt. Lemmon Survey MPS 323227
2010 05 12.14591 12 31 08.00 +04 13 02.7 21.4 V G96 – Mt. Lemmon Survey MPS 327194
2010 05 12.15313 12 31 07.75 +04 13 02.2 20.9 V G96 – Mt. Lemmon Survey MPS 327194
2010 05 12.16034 12 31 07.57 +04 13 02.0 21.1 V G96 – Mt. Lemmon Survey MPS 327194
2010 05 12.16748 12 31 07.39 +04 13 01.5 20.9 V G96 – Mt. Lemmon Survey MPS 327194
2011 06 22.38398 20 15 02.77 -23 19 08.8 19.5 V G96 – Mt. Lemmon Survey MPS 385700
2011 06 22.39093 20 15 02.55 -23 19 10.9 19.5 V G96 – Mt. Lemmon Survey MPS 385700
2011 06 22.39778 20 15 02.34 -23 19 12.9 19.5 V G96 – Mt. Lemmon Survey MPS 385700
